User: anonymous   Login
Location: Feydey
(46.3431°N, 7.0106°E)
Time: 08:50:06
(UTC+00:00)
Language:

SJ 16-02 - Orbit

View from above orbital plane
View from above orbital plane
View from above satellite
View from above satellite

Ground track
Ground track

The orbit data is extracted from the following two-line orbital elements,

1 41634U 16043A   21264.93182793  .00000137  00000-0  18884-4 0  9993
2 41634  75.0027 289.7697 0008864 265.3006  94.7174 14.85844694283779
Epoch (UTC): 21 September 2021 22:21:49
Eccentricity: 0.0008864
inclination: 75.0027°
perigee height: 605 km
apogee height: 617 km
right ascension of ascending node: 289.7697°
argument of perigee: 265.3006°
revolutions per day: 14.85844694
mean anomaly at epoch: 94.7174°
orbit number at epoch: 28377

The dashed part of the orbit path shows where the satellite is in the earth's shadow,  

DLR